This is the latest recevied weather packets stored in our database for station/object IW5CTE-13. If no packets are shown the sender has not sent any weather packets the latest 10 day(s).
| Time | Temp. | Humidity | Pressure | Rain* | Wind** | Luminosity | Snow |
|---|---|---|---|---|---|---|---|
| 1777822653 | 20.56° C | 51% | 1019.4 hPa | - | - | - | - |
| 1777822052 | 20.56° C | 48% | 1019.6 hPa | - | - | - | - |
| 1777821453 | 20.56° C | 45% | 1019.6 hPa | - | - | - | - |
| 1777820852 | 20.56° C | 45% | 1019.6 hPa | - | - | - | - |
| 1777820252 | 20.56° C | 47% | 1019.7 hPa | - | - | - | - |
| 1777819652 | 20.56° C | 47% | 1019.7 hPa | - | - | - | - |
| 1777819052 | 21.11° C | 45% | 1019.8 hPa | - | - | - | - |
| 1777818452 | 21.11° C | 45% | 1019.9 hPa | - | - | - | - |
| 1777817853 | 21.11° C | 49% | 1020 hPa | - | - | - | - |
| 1777817252 | 21.11° C | 49% | 1020.1 hPa | - | - | - | - |
| 1777816652 | 21.11° C | 51% | 1020.2 hPa | - | - | - | - |
| 1777816053 | 21.11° C | 48% | 1020.5 hPa | - | - | - | - |
| 1777815452 | 21.11° C | 49% | 1020.7 hPa | - | - | - | - |
| 1777814853 | 21.67° C | 50% | 1020.8 hPa | - | - | - | - |
| 1777814252 | 21.67° C | 52% | 1021 hPa | - | - | - | - |
| 1777813653 | 21.67° C | 51% | 1021 hPa | - | - | - | - |
| 1777813052 | 22.22° C | 48% | 1021.2 hPa | - | - | - | - |
| 1777812452 | 22.22° C | 47% | 1021.2 hPa | - | - | - | - |
| 1777811852 | 22.22° C | 49% | 1021.5 hPa | - | - | - | - |
| 1777811252 | 22.22° C | 49% | 1021.6 hPa | - | - | - | - |
| 1777810652 | 22.78° C | 47% | 1021.7 hPa | - | - | - | - |
| 1777810052 | 22.78° C | 47% | 1021.8 hPa | - | - | - | - |
| 1777809452 | 23.33° C | 45% | 1021.7 hPa | - | - | - | - |
| 1777808852 | 23.89° C | 44% | 1021.8 hPa | - | - | - | - |
| 1777808252 | 23.89° C | 45% | 1021.7 hPa | - | - | - | - |
* Rain since midnight (hover to see other rain measurements)
** Current wind speed in m/s (hover to see current wind gust speed)